FW2430 Weather Reports


Display with metric or nautical units.
time (UTC)temp
F
wind
direction
speed
MPH
gust
MPH
rain 1hr
in
rain 24hr
in
rain mn
in
humidity
%
barometer
mb
20260510014635 53 187 0.0 4.0 0.00 0.33 0.33 92 1006.7
20260510013056 54 264 0.0 3.0 0.00 0.33 0.33 92 1006.4
20260510011533 54 263 0.0 2.0 0.00 0.33 0.33 92 1006.3
20260510010116 54 264 2.0 8.0 0.00 0.33 0.33 92 1006.2
20260510004532 55 227 1.0 3.0 0.00 0.36 0.33 92 1006.2
20260510003129 55 213 1.0 4.0 0.00 0.36 0.33 91 1006.1
20260510001553 55 286 1.0 11.0 0.02 0.36 0.33 91 1005.9
20260510000016 55 217 3.0 12.0 0.08 0.36 0.33 91 1005.7
20260509234608 55 225 1.0 8.0 0.18 0.36 0.33 92 1005.6
20260509233033 55 275 2.0 12.0 0.33 0.36 0.33 92 1005.8
20260509231623 54 289 4.0 11.0 0.30 0.33 0.30 91 1006.6
20260509230054 55 279 5.0 19.0 0.25 0.28 0.25 89 1006.8
20260509224518 61 271 13.0 21.0 0.08 0.11 0.08 74 1007.0
20260509223113 67 215 5.0 16.0 0.00 0.03 0.00 58 1003.8
20260509221535 67 239 3.0 15.0 0.00 0.03 0.00 57 1003.5
20260509220135 68 224 0.0 0.0 0.00 0.03 0.00 55 1003.2
20260509214557 68 49 0.0 0.0 0.00 0.03 0.00 56 1003.1
20260509213020 70 222 0.0 0.0 0.00 0.03 0.00 54 1003.0
20260509211609 70 154 0.0 0.0 0.00 0.03 0.00 58 1003.1
20260509210034 70 165 0.0 0.0 0.00 0.03 0.00 58 1003.5
20260509204614 69 263 0.0 0.0 0.00 0.03 0.00 56 1003.9
20260509203029 69 215 2.0 10.0 0.00 0.03 0.00 56 1003.9
20260509201633 69 34 0.0 7.0 0.00 0.03 0.00 57 1004.1
20260509200105 70 178 0.0 0.0 0.00 0.03 0.00 58 1004.3
20260509194509 69 275 0.0 0.0 0.00 0.03 0.00 55 1004.6
20260509193109 69 28 0.0 0.0 0.00 0.03 0.00 58 1004.8
20260509191526 69 227 0.0 0.0 0.00 0.03 0.00 56 1004.9
20260509190110 68 161 0.0 0.0 0.00 0.03 0.00 58 1005.1
20260509184553 68 47 0.0 0.0 0.00 0.03 0.00 57 1005.0
20260509183130 68 79 0.0 0.0 0.00 0.03 0.00 61 1005.2
20260509181620 68 232 0.0 0.0 0.00 0.03 0.00 59 1005.5
20260509180027 68 227 0.0 0.0 0.00 0.03 0.00 59 1005.4
20260509174626 68 251 0.0 0.0 0.00 0.03 0.00 60 1005.5
20260509173059 67 176 0.0 0.0 0.00 0.03 0.00 59 1005.6
20260509171500 66 132 0.0 0.0 0.00 0.03 0.00 60 1005.8
20260509164526 66 257 0.0 0.0 0.00 0.03 0.00 62 1005.9
20260509163127 65 224 0.0 0.0 0.00 0.03 0.00 65 1006.1
20260509161538 64 213 0.0 0.0 0.00 0.03 0.00 68 1006.5
20260509160001 62 281 0.0 0.0 0.00 0.03 0.00 72 1006.6
20260509154552 63 212 0.0 0.0 0.00 0.03 0.00 72 1006.6
20260509153015 62 24 0.0 0.0 0.00 0.03 0.00 74 1006.6
20260509151626 61 242 0.0 0.0 0.00 0.03 0.00 76 1006.7
20260509150044 60 236 1.0 6.0 0.00 0.03 0.00 85 1006.9
20260509144521 58 253 4.0 10.0 0.00 0.03 0.00 83 1006.9
20260509143133 57 296 1.0 4.0 0.00 0.03 0.00 87 1006.9
20260509141552 57 282 1.0 6.0 0.00 0.03 0.00 88 1006.9
20260509140014 56 192 3.0 8.0 0.00 0.03 0.00 90 1007.1
20260509134617 56 148 0.0 3.0 0.00 0.03 0.00 92 1007.0
20260509133034 55 90 0.0 2.0 0.00 0.03 0.00 92 1007.1
20260509131626 55 263 0.0 4.0 0.00 0.03 0.00 92 1007.2
20260509130051 55 321 1.0 4.0 0.00 0.03 0.00 93 1007.2
20260509124504 54 223 1.0 4.0 0.00 0.03 0.00 94 1007.3
20260509123103 53 143 1.0 4.0 0.00 0.03 0.00 94 1007.5
20260509121522 53 59 0.0 4.0 0.00 0.03 0.00 94 1007.6
20260509120113 53 302 0.0 3.0 0.00 0.03 0.00 94 1007.7
20260509114529 52 293 1.0 4.0 0.00 0.03 0.00 94 1007.7
20260509113113 52 32 0.0 2.0 0.00 0.03 0.00 94 1007.6
20260509111530 52 49 1.0 3.0 0.00 0.03 0.00 94 1007.5
20260509110118 51 91 0.0 3.0 0.00 0.03 0.00 94 1007.5
20260509104543 51 88 0.0 2.0 0.00 0.03 0.00 94 1007.6
20260509103125 51 149 0.0 3.0 0.00 0.03 0.00 94 1007.5
20260509101617 51 184 0.0 3.0 0.00 0.03 0.00 94 1007.4
20260509100001 51 335 0.0 3.0 0.00 0.03 0.00 94 1007.5
20260509094606 51 46 0.0 3.0 0.00 0.03 0.00 94 1007.6
20260509093025 51 108 0.0 5.0 0.00 0.03 0.00 94 1007.6
20260509091618 51 53 1.0 4.0 0.00 0.03 0.00 94 1007.9
20260509090041 51 89 0.0 2.0 0.00 0.03 0.00 94 1007.9
20260509084629 51 340 0.0 3.0 0.00 0.03 0.00 94 1008.1
20260509083109 51 117 1.0 3.0 0.00 0.03 0.00 94 1008.1
20260509081541 51 271 0.0 4.0 0.00 0.03 0.00 94 1008.0
20260509080123 51 271 0.0 3.0 0.00 0.03 0.00 94 1008.0
20260509074546 51 98 0.0 3.0 0.00 0.03 0.00 94 1008.1
20260509073129 51 241 0.0 3.0 0.00 0.03 0.00 94 1008.1
20260509071558 51 84 0.0 5.0 0.00 0.03 0.00 94 1008.2
20260509070016 51 322 0.0 5.0 0.00 0.03 0.00 94 1008.3
20260509064620 51 175 0.0 3.0 0.00 0.03 0.00 93 1008.4
20260509063029 51 234 0.0 2.0 0.00 0.03 0.00 93 1008.4
20260509061615 51 103 1.0 3.0 0.00 0.03 0.00 93 1008.6
20260509060037 51 191 0.0 6.0 0.00 0.03 0.00 94 1008.6
20260509054625 51 350 0.0 3.0 0.00 0.03 0.00 93 1008.8
20260509053040 51 297 0.0 3.0 0.00 0.03 0.00 93 1009.0
20260509051509 51 98 0.0 3.0 0.00 0.03 0.00 93 1009.2
20260509050059 51 360 0.0 4.0 0.00 0.03 0.00 93 1009.3
20260509044524 51 66 1.0 4.0 0.00 0.03 0.00 93 1009.4
20260509043120 51 67 1.0 5.0 0.00 0.03 0.00 93 1009.5
20260509041609 51 97 1.0 4.0 0.00 0.03 0.00 93 1009.8
20260509040002 51 95 1.0 6.0 0.00 0.03 0.00 93 1009.9
20260509034616 51 103 0.0 4.0 0.00 0.03 0.03 93 1010.0
20260509033042 51 293 1.0 6.0 0.00 0.03 0.03 93 1010.1
20260509031536 51 232 1.0 7.0 0.00 0.03 0.03 93 1010.2
20260509030128 51 63 1.0 4.0 0.00 0.03 0.03 93 1010.4
20260509024546 51 71 1.0 4.0 0.00 0.03 0.03 93 1010.4
20260509023010 51 269 1.0 4.0 0.00 0.03 0.03 92 1010.5
20260509021612 52 219 1.0 6.0 0.00 0.03 0.03 92 1010.6
20260509020045 52 256 1.0 4.0 0.00 0.03 0.03 92 1010.6